Location: Saint-Hippolyte
(43.6394°N, 4.7559°E)
Time: 15:54:16
(UTC+00:00)

Cosmos 1606 Rocket - Pass Details

Date: 24 October 2020
Orbit: 604 x 631 km, 82.5° (Epoch: 23 November)

Event Time Altitude Azimuth Distance (km) Brightness Sun altitude
Rises 17:52:08 0° 192° (SSW) 2,854 7.2 -13.2°
Reaches altitude 10° 17:54:20 10° 194° (SSW) 1,959 6.4 -13.6°
Maximum altitude 17:58:39 71° 279° (W) 651 3.8 -14.4°
Drops below altitude 10° 18:03:04 10° 4° (N) 1,992 6.1 -15.1°
Sets 18:05:19 0° 7° (N) 2,907 6.9 -15.6°
